EKRAN 2 DEB, 59987

Orbit data source: Space-Track

EKRAN 2 DEB, 59987 is space debris in GEO originally from a launch on Tue, 20 Sep 1977 UTC launched from the Tyuratam Missile And Space Complex (TTMTR). Debris objects in space refer to the collection of defunct objects orbiting the Earth. Examples of debris include non-operational satellites, rocket bodies, and fragments generated from explosions, collisions, or faulty payload assembly.

Not visible in the next 10 days
EKRAN 2 DEB details
Identifier
59987, 1977-092N
Orbit
GEO
Last TLE update2 days ago
Origin
Flag of CISGUKOS RVSN (CIS)
ManufacturerUnknown
MissionSpacecraft
Bus & MotorUnknown
MassUnknown
Launch date (UTC)
1977-09-20 (47 years ago)
Launch vehicleUnknown
Launch site
Tyuratam Missile And Space Complex (TTMTR)
Object type
Payload
Rocket body
Debris
Shape & HBRUnknown
Radar Cross SectionRCS unknown

Expand to show TLE details & history

TLE from 2 days ago
0 EKRAN 2 DEB
1 59987U 77092N   25034.77236572 -.00000221  00000-0  00000-0 0  9992
2 59987   5.4074 280.6740 0013027 211.4085   7.4711  1.00383273 58113
Epoch: 2025-02-03T18:32Z
Definitive object data (Epoch: 2025-02-03T18:32:12.398Z)
Latitude-3.38196°
Longitude87.24163°
Altitude35,700.738 km
Speed3.08 km/s
True Right ascension09h 17m 55s
True Declination-3° 22' 43"
Sunlit
Object was in daylight at TLE epoch
Visualization TLE readout
Latitude4.62554°
Longitude-72.51948°
Altitude35,803.264 km
Speed3.072 km/s
Apparent Right ascension22h 33m 31s
Apparent Declination0° 49' 22"
Sunlit
Object is in daylight
Visualization observer readout
Local Sidereal Time09:47:16
Azimuth342.018° N
Elevation-49.513°
Doppler factor1
Orbital elements
Apogee altitude35,811.316 km
Perigee altitude35,701.538 km
Semi-major axis42,134.564 km
Eccentricity0.0013027
Inclination5.4074°
RAAN280.674°
Arg. of periapsis211.4085°
True anomaly7.49054°
Mean anomaly7.4711°
Eccentric anomaly7.48082°
Mean motion0.25095 °/min
BSTARUnknown
Orbital period1434.55 mins
Loading historical data...
59987 neighbors
Authenticating...
Loading maneuver chart data...
Loading historical data...
Loading historical data...
Loading historical data...
Loading historical data...
Loading historical data...
Loading historical data...
Loading historical data...

EKRAN 2 DEB Visibility forecast

Observer location: undefined°, undefined

EKRAN 2 DEB is not visible in the next 10 days
Span
Click to sort rows by Start time (UTC) header in descending order
Start Az.
Max El. time (UTC)
Max El. Az.
Max El.
End time (UTC)
End Az.
|